GEFSCGP_500_meanwind_138.txt.gz
Wind_Speed
10 11 13 15 16 17 18 19 21 23 24 25 25 27 28 29 31 33 34 35 36 37 38 38 39 41 42 42 42 42 43 44 45 46 47 47 47 47 48 48 48 48 48 48
6 7 9 11 13 14 15 17 18 20 20 20 21 22 24 25 26 28 30 31 33 35 36 37 38 39 40 40 41 40 40 41 42 43 44 45 45 46 47 48 49 48 47 47
3 5 8 9 10 12 13 14 16 17 19 19 19 19 21 23 24 26 27 29 30 32 33 34 35 35 36 37 38 38 38 39 40 40 42 44 44 44 44 46 46 46 46 46
1 3 5 7 7 9 10 12 13 14 16 16 18 19 19 21 23 23 23 24 26 27 29 31 31 31 31 32 33 35 36 36 38 39 41 41 42 42 42 42 43 45 45 44
1 1 3 4 5 6 8 9 10 12 13 13 14 17 16 19 20 22 21 21 22 24 26 27 27 28 28 30 31 33 33 34 35 37 39 40 41 41 40 41 42 44 44 44
2 1 1 2 3 5 6 7 9 10 12 12 12 14 14 15 16 18 19 21 21 22 23 24 25 26 27 29 30 32 32 33 34 35 36 38 39 39 39 40 40 41 42 43
4 3 2 1 2 4 5 6 7 8 9 10 10 12 12 12 13 15 16 17 19 21 23 24 24 25 26 27 27 28 29 30 31 32 34 36 37 37 36 37 38 38 40 41
5 4 3 2 2 3 4 5 6 6 7 8 9 10 11 11 11 12 13 14 16 18 20 21 23 23 23 24 25 25 25 26 28 29 30 32 33 34 34 34 34 34 34 36
5 4 3 2 2 2 3 4 5 6 7 8 8 9 9 9 11 12 12 12 13 14 15 17 18 19 20 22 23 24 23 23 24 26 27 28 29 30 30 29 28 29 31 32
6 5 4 3 3 3 3 4 5 6 8 8 8 9 9 9 10 11 12 12 12 12 12 13 14 16 17 19 20 21 20 19 20 20 22 24 25 24 24 23 24 25 27 27
6 5 5 5 5 4 4 4 5 6 7 8 9 9 9 10 10 11 12 12 11 11 10 10 10 10 12 13 14 15 16 16 16 16 18 19 20 20 20 20 21 22 23 23
6 5 5 5 5 5 5 5 6 6 7 9 10 10 10 10 10 9 10 10 9 9 8 7 7 7 8 10 10 11 12 12 12 13 15 17 18 19 20 20 20 20 20 21
7 6 6 6 6 6 6 6 7 7 9 9 10 10 9 9 9 8 9 9 8 7 7 7 7 7 7 8 9 9 10 9 8 9 12 15 16 16 17 17 17 18 19 20
8 8 8 8 8 8 8 8 8 9 10 10 10 10 10 9 9 9 9 7 7 7 7 7 6 5 6 6 8 8 8 8 8 8 9 12 14 14 15 15 16 17 19 20
10 9 10 10 10 9 9 10 10 11 11 11 10 10 10 9 9 9 9 7 6 6 6 6 6 6 6 7 8 9 9 8 9 9 9 10 12 13 15 17 18 19 19 20
13 12 12 11 11 11 11 11 11 11 11 11 10 10 10 10 10 9 9 7 6 5 6 6 6 6 6 7 8 9 10 10 11 11 10 10 12 13 14 15 17 18 20 21
15 15 14 14 13 13 12 12 12 12 11 12 11 10 10 10 11 10 9 8 8 6 5 6 6 7 7 7 8 9 10 11 11 12 12 13 14 15 15 16 17 18 19 21
17 17 17 16 16 15 14 14 14 14 13 13 12 11 12 12 12 12 11 10 9 9 9 8 8 9 9 10 9 9 10 11 13 14 14 14 15 15 15 16 17 18 20 22
19 20 20 19 18 17 15 15 16 16 15 14 14 13 13 14 14 13 13 12 11 10 10 10 10 10 11 11 12 12 12 13 14 14 14 15 15 15 16 17 18 20 21 22
21 22 22 22 21 19 17 17 18 18 16 16 16 15 14 15 14 14 13 13 13 13 13 13 13 12 12 12 13 13 13 14 14 14 14 14 15 16 17 19 20 21 22 24
23 24 24 24 24 22 20 20 20 20 18 18 17 17 16 16 15 14 14 14 14 14 14 15 15 15 14 14 14 14 14 14 14 15 15 16 16 17 18 20 21 22 24 25
25 25 26 26 26 24 23 22 22 21 20 19 18 17 16 16 16 16 16 15 15 14 15 15 15 15 15 15 15 15 15 16 16 16 17 18 19 20 21 22 22 23 24 25
28 27 27 26 25 26 26 25 24 24 22 21 20 19 18 18 17 17 17 17 16 16 16 16 17 17 17 17 17 17 18 18 18 19 19 20 21 22 23 24 25 26 26 27
31 30 30 28 26 28 28 28 27 27 25 24 23 22 21 20 21 20 20 19 19 19 19 19 19 19 19 19 19 20 20 20 20 21 21 22 23 24 25 26 27 28 29 30
32 32 31 30 28 30 29 30 29 29 27 26 25 25 23 23 23 23 23 22 22 21 21 21 21 21 21 22 22 23 23 23 23 24 24 24 25 27 27 28 28 29 30 31
31 32 32 31 30 31 30 30 31 31 30 28 27 27 26 25 25 25 25 25 24 23 23 23 23 24 24 24 24 25 25 26 26 26 27 28 28 29 29 29 30 31 31 32

GEFSCGP_500_meanwind_144.txt.gz
Wind_Speed
4 5 7 9 11 14 16 17 19 22 25 26 28 29 30 32 33 34 34 34 35 35 36 36 37 38 38 39 40 41 42 42 43 42 42 43 43 44 44 44 45 45 46 45
3 3 4 6 8 10 13 14 16 18 20 22 24 25 27 29 30 30 31 32 33 33 34 35 36 37 37 37 39 40 41 42 42 42 42 42 43 43 43 44 44 44 45 44
1 0 2 3 5 6 8 11 13 15 16 18 21 22 23 25 26 27 29 30 31 31 32 32 33 34 34 34 35 37 37 38 39 40 40 41 42 42 42 44 44 44 45 44
3 2 0 2 3 4 6 7 9 11 13 14 16 17 18 20 22 24 26 27 29 30 29 30 30 30 31 32 33 35 36 36 37 38 39 40 41 41 41 43 43 44 44 43
4 3 2 1 2 3 4 6 7 9 11 12 13 14 14 16 18 20 22 23 25 26 27 27 28 29 30 31 32 33 34 35 36 37 37 38 39 39 40 41 42 42 42 42
7 5 3 2 2 3 4 5 7 8 9 11 12 12 12 13 14 16 19 21 23 24 25 26 27 28 29 30 31 32 33 34 34 35 35 36 36 37 37 38 40 41 41 40
8 6 5 3 3 3 4 5 6 7 8 8 10 11 10 12 13 14 16 17 19 21 24 25 26 27 28 29 30 31 32 32 33 33 34 35 35 35 35 36 37 38 38 38
9 8 7 5 4 3 4 4 5 7 7 7 8 9 9 10 11 13 14 16 17 18 19 21 23 24 26 28 29 30 30 30 31 31 32 33 34 34 34 34 35 35 36 36
10 9 7 6 5 4 4 4 5 6 6 6 7 7 7 8 10 11 13 14 16 16 17 19 21 22 24 26 27 28 28 28 28 28 29 30 31 31 32 33 33 33 33 33
10 9 9 8 6 5 4 4 5 6 6 7 6 6 6 7 9 10 12 13 14 16 16 18 19 20 21 23 24 25 25 25 26 26 27 28 28 29 30 31 31 31 32 31
9 9 9 8 7 6 6 5 6 7 8 9 8 8 8 8 9 10 12 13 14 14 15 15 16 16 17 18 20 21 22 22 23 24 25 26 27 28 28 28 28 28 29 28
10 10 9 8 8 8 7 7 8 8 9 10 10 9 10 11 11 12 12 12 12 12 12 13 13 13 13 14 15 17 19 20 20 21 21 21 23 23 24 25 25 25 25 26
11 10 10 9 9 10 10 10 9 10 10 10 10 10 11 11 12 12 12 12 11 11 11 12 12 13 13 13 13 13 15 16 17 18 18 18 19 20 21 22 22 23 23 24
12 11 12 12 12 12 12 12 11 11 11 11 11 11 11 12 12 12 12 12 11 11 10 10 10 11 11 11 12 12 12 14 15 15 16 16 17 17 18 19 21 21 22 22
14 13 14 14 15 14 13 13 13 13 12 12 11 12 12 13 12 12 12 12 11 10 10 9 8 9 10 11 11 12 12 12 13 14 14 14 15 16 16 17 19 19 20 21
16 16 16 16 16 16 15 14 14 14 14 13 12 12 13 13 13 13 13 12 11 10 9 9 9 9 9 10 10 11 11 11 12 13 14 15 15 15 15 16 17 18 18 18
19 19 18 17 18 19 17 16 15 15 15 14 13 12 13 13 13 13 13 12 11 10 10 9 9 10 9 10 10 11 11 11 12 13 14 15 15 15 15 15 16 17 17 17
21 21 21 21 20 21 19 18 17 16 16 15 14 14 14 14 13 13 13 12 12 11 11 10 10 10 10 11 11 12 13 13 13 14 15 16 17 16 16 16 16 17 17 18
23 23 24 24 23 21 20 19 19 18 17 16 16 16 15 15 14 14 14 13 12 12 11 11 11 11 11 11 12 13 14 15 16 15 16 16 17 17 16 16 17 17 18 18
26 26 26 26 25 23 20 19 20 21 20 19 18 17 17 16 16 15 15 15 14 13 13 13 13 14 13 14 14 14 14 15 16 16 16 17 17 18 18 18 18 19 19 19
29 29 28 28 28 25 23 21 21 22 22 22 21 20 19 19 18 17 17 17 16 16 15 15 15 15 15 15 15 16 16 17 17 18 18 18 18 19 19 20 20 20 20 20
33 32 31 30 30 28 26 25 25 24 24 24 23 23 22 21 20 20 20 19 19 19 18 17 17 17 17 17 17 18 18 19 19 20 20 20 20 21 21 21 22 22 21 22
36 35 35 34 32 30 29 29 28 28 27 27 26 24 24 23 22 21 21 21 21 21 21 20 19 19 19 19 19 20 21 21 21 21 21 20 20 21 22 22 23 23 23 24
38 37 37 36 32 31 32 31 31 31 30 29 27 26 26 25 24 23 23 22 22 22 23 23 22 22 21 21 21 21 22 22 22 22 23 23 22 23 24 25 25 25 25 25
40 39 37 36 34 34 34 34 33 32 32 31 29 28 28 27 27 26 25 24 24 24 24 24 24 24 24 23 23 22 23 23 23 24 24 25 25 25 25 25 25 26 26 27
38 38 38 37 35 36 35 35 35 34 33 32 32 30 29 29 28 27 27 26 26 25 25 25 26 26 26 26 25 24 24 24 25 25 26 27 27 27 27 28 28 29 29 29

GEFSCGP_500_meanwind_150.txt.gz
Wind_Speed
4 4 4 6 9 10 12 15 17 19 22 24 26 27 29 31 32 33 34 35 37 37 38 39 39 38 38 38 39 40 40 40 41 41 42 42 42 42 42 43 44 43 43 43
6 5 5 6 8 10 11 13 14 17 19 21 24 25 27 29 30 31 31 32 33 35 36 37 37 37 37 38 38 39 40 40 41 41 41 42 43 43 43 43 44 44 43 43
7 5 6 6 7 10 12 13 14 16 17 19 21 22 24 26 27 28 28 29 31 32 33 34 35 36 37 37 38 39 39 39 40 40 40 41 41 41 41 42 42 43 43 44
9 8 6 6 7 9 11 12 14 15 17 18 20 20 21 23 24 25 27 28 28 30 33 34 35 36 37 37 37 37 38 38 39 39 39 39 39 40 40 40 40 41 42 43
9 8 7 7 7 8 9 10 12 13 15 16 18 19 19 20 22 23 25 26 28 29 30 32 34 35 35 35 35 36 36 37 37 38 38 38 37 38 38 39 38 39 40 41
9 9 9 9 9 8 9 10 11 12 13 14 15 17 17 18 19 21 22 24 25 27 28 30 31 33 33 34 34 35 36 36 36 36 36 36 36 37 37 38 38 37 37 39
10 10 10 9 9 9 9 9 10 11 12 12 13 14 14 15 16 18 19 21 23 24 25 27 28 29 31 32 33 33 34 35 35 35 35 35 36 36 36 37 37 36 36 37
11 10 10 10 10 10 9 9 10 11 12 12 12 13 12 12 14 16 18 19 21 21 22 23 25 26 28 29 31 32 33 34 34 34 35 35 35 35 36 36 35 35 35 35
12 12 11 11 11 11 10 10 11 12 12 12 13 13 12 13 14 15 16 18 19 19 20 21 22 24 26 27 28 30 30 31 32 33 34 34 35 35 35 35 33 33 33 33
14 14 13 13 12 12 12 11 11 12 14 14 13 14 14 14 14 15 16 17 17 18 18 19 21 23 24 26 27 28 29 29 30 32 32 33 33 34 34 34 33 33 32 32
15 15 15 14 13 13 13 13 14 14 15 15 14 14 14 14 14 14 15 15 16 17 18 19 20 22 23 24 25 26 27 29 30 31 32 32 33 33 33 34 34 34 34 34
17 17 16 14 14 15 15 15 16 16 16 17 16 15 15 15 15 15 16 17 17 18 19 20 20 21 22 23 23 24 25 26 27 28 29 30 31 31 31 32 32 33 33 33
18 17 17 17 17 17 17 18 18 18 18 18 17 16 16 16 16 17 18 18 19 19 19 20 20 20 20 21 22 22 23 23 25 25 26 26 27 28 28 29 29 30 30 31
20 19 19 19 19 19 19 19 20 21 20 19 17 16 17 18 18 19 19 19 20 20 20 20 20 20 19 19 20 20 21 21 21 22 22 23 24 25 26 27 28 28 29 29
23 22 22 21 21 21 21 21 22 22 21 20 18 18 18 19 20 20 20 20 20 20 20 20 20 19 19 18 18 19 19 19 20 20 21 22 23 24 24 25 25 26 27 27
25 25 25 24 23 24 23 23 23 22 21 21 20 19 19 20 21 21 21 21 20 20 20 20 20 19 19 18 19 19 19 19 19 20 20 20 21 22 22 23 24 24 25 26
27 28 28 28 26 26 26 24 23 23 23 22 21 20 21 21 21 22 21 21 21 20 21 21 20 20 20 20 20 19 19 19 19 19 19 19 19 20 21 21 22 23 24 25
30 30 31 30 29 29 27 25 25 25 25 24 23 22 22 22 23 23 23 22 21 21 21 21 21 21 20 20 20 19 19 18 18 18 18 18 18 19 19 21 22 22 23 23
33 33 34 33 33 32 29 27 26 27 27 26 26 25 25 24 24 24 24 23 22 22 22 22 22 22 21 21 21 20 19 19 19 19 19 19 19 20 21 21 22 23 23 23
35 35 36 36 36 35 32 29 28 29 29 28 28 28 27 26 26 25 26 25 24 23 23 22 22 22 22 22 22 22 22 21 21 21 22 22 22 23 23 23 23 23 23 23
37 38 38 38 39 37 35 33 32 32 31 30 30 30 30 29 28 28 28 28 27 27 26 25 24 24 24 23 23 23 23 23 23 23 23 24 25 25 25 25 25 25 25 25
40 41 40 41 41 38 35 35 34 34 34 34 33 33 32 31 30 30 30 30 29 29 28 27 27 26 25 25 24 23 24 25 24 24 24 25 25 25 25 26 26 25 26 26
42 42 43 43 41 40 38 38 36 37 37 37 37 36 35 34 32 31 31 31 31 30 29 29 28 27 27 27 26 24 24 25 25 25 25 26 26 26 26 27 27 27 27 28
44 44 45 45 42 41 40 39 38 38 39 39 39 39 38 37 35 34 34 33 32 32 31 30 30 28 28 28 27 27 27 27 27 27 27 28 28 28 28 28 29 29 30 30
46 46 46 46 44 43 42 41 40 41 41 42 41 41 40 38 37 37 36 35 34 33 33 32 31 30 30 30 28 28 28 28 28 28 28 29 30 30 29 29 30 31 31 31
46 46 47 46 44 46 45 43 43 44 44 44 44 42 41 40 38 37 37 36 35 34 33 33 33 32 32 32 31 30 30 30 30 30 30 30 31 32 32 31 31 32 33 33

GEFSCGP_500_meanwind_156.txt.gz
Wind_Speed
8 5 4 4 5 7 9 11 13 15 17 19 20 22 23 25 26 27 28 30 32 32 34 34 35 37 38 39 39 40 40 40 40 40 40 41 41 41 41 40 40 40 40 41
8 7 6 5 6 6 8 10 11 13 15 16 18 20 22 24 25 26 28 29 31 32 33 34 35 35 36 37 38 39 40 41 41 41 41 41 41 41 41 41 41 41 40 40
9 8 7 7 6 7 7 9 10 11 12 15 16 17 19 21 23 25 26 27 28 30 31 32 33 34 35 36 37 38 39 40 40 41 41 41 41 42 41 40 40 41 41 41
9 9 8 8 7 7 7 8 9 10 11 12 14 16 17 20 22 24 25 26 27 29 30 31 32 33 33 34 35 37 37 38 39 40 40 40 40 40 40 40 40 40 40 40
11 10 9 9 9 8 8 8 9 9 10 11 12 14 15 17 19 21 23 24 25 27 29 30 30 31 32 32 33 34 35 36 37 38 38 39 39 38 38 38 39 39 39 40
12 11 11 11 10 10 9 9 9 10 10 10 10 12 12 15 17 19 21 22 24 25 27 28 28 29 31 32 33 33 34 35 35 35 36 37 37 38 38 37 38 38 39 39
13 12 12 12 11 10 10 10 10 10 10 10 10 11 11 13 15 17 19 20 21 23 24 26 27 27 28 30 32 32 32 33 34 34 35 36 37 38 38 38 38 39 39 39
14 13 12 12 11 11 11 11 11 11 10 10 10 11 12 13 15 16 17 19 20 22 23 25 26 27 28 29 30 31 32 32 32 33 33 34 36 37 37 38 39 39 39 40
15 14 13 12 12 12 12 12 12 12 11 11 11 12 13 14 15 16 17 18 19 20 22 23 24 25 26 28 29 29 30 31 32 32 31 32 33 34 35 37 38 38 38 39
16 15 14 14 13 14 14 14 14 14 14 13 13 13 14 15 16 16 17 18 19 20 20 21 22 23 24 25 26 27 27 29 30 31 32 32 33 33 34 35 35 36 37 37
17 16 16 16 15 16 16 15 16 16 17 17 16 16 16 17 16 17 18 19 19 20 20 20 21 22 23 23 25 25 27 28 29 29 30 31 31 31 32 33 35 36 36 36
19 18 18 17 17 17 17 18 18 19 20 20 20 19 19 18 18 19 20 21 21 21 22 22 22 23 23 23 24 26 26 27 28 29 29 30 31 32 32 32 33 34 35 35
21 21 21 20 19 19 19 19 19 20 21 21 21 19 20 20 20 20 20 21 22 23 23 23 23 23 24 24 24 25 25 26 26 27 28 28 29 29 30 31 32 32 33 34
24 23 23 23 22 22 21 20 20 21 21 21 20 19 20 21 21 21 21 22 23 23 23 23 23 23 24 24 24 24 24 24 25 26 26 27 27 28 28 29 30 30 31 32
26 25 25 25 24 24 23 22 22 22 22 23 22 22 21 23 23 23 23 23 23 24 23 23 23 23 23 23 24 23 23 24 24 25 25 26 27 27 27 28 28 29 29 30
29 29 28 27 26 25 25 24 25 25 25 25 25 24 23 24 25 25 25 25 24 23 24 25 25 24 24 24 24 24 24 24 24 24 25 25 26 26 27 27 27 27 28 29
31 31 30 29 28 28 27 26 26 26 26 27 27 26 26 26 27 27 27 26 26 25 25 26 26 26 25 26 25 25 25 24 25 25 25 26 26 26 26 27 27 27 27 28
33 32 33 32 32 32 29 28 28 28 28 29 29 29 30 29 28 28 28 27 27 27 28 27 27 27 27 27 27 27 27 27 27 26 26 26 26 26 25 25 26 26 26 27
34 34 34 34 34 34 31 30 30 31 30 30 31 31 32 31 31 30 29 29 28 28 28 29 29 29 29 29 28 28 28 28 28 27 27 27 27 27 26 26 26 26 26 26
37 36 37 36 36 35 33 33 33 34 33 31 32 33 33 32 32 31 30 30 30 30 30 30 30 30 30 30 29 28 28 28 28 27 27 27 26 26 27 26 26 27 27 27
38 38 38 38 38 37 35 35 35 35 35 35 35 34 34 34 34 33 32 32 31 31 31 31 31 31 31 31 31 30 29 29 30 29 28 28 27 27 27 27 27 27 28 28
40 40 39 40 40 39 37 38 38 39 39 39 38 38 37 37 36 35 35 34 33 32 32 32 32 32 32 32 32 31 31 31 31 30 30 29 28 28 29 29 28 28 29 29
43 42 43 43 42 41 41 41 42 42 42 41 40 40 40 40 39 38 37 36 35 34 33 34 34 33 33 34 33 32 31 31 31 31 30 30 29 29 29 30 29 29 30 31
47 45 45 45 44 43 44 45 45 45 44 43 42 41 41 41 41 40 39 38 37 36 35 36 36 35 34 34 34 34 33 32 32 31 31 31 30 30 30 31 31 32 32 32
47 46 46 46 45 46 46 47 47 47 47 45 44 43 43 42 41 41 41 40 39 38 37 37 38 37 36 36 36 36 35 34 33 33 33 33 33 33 32 32 32 33 33 33
46 46 47 47 46 49 48 47 48 48 46 46 46 45 44 44 43 42 42 41 40 40 39 39 39 39 38 37 37 37 37 36 35 34 35 35 34 34 34 33 33 34 35 35